Simultaneous Nadir Overpasses (SNOs) Predictions

Prediction of SNOs over PacNW region [( 10.00, 139.50) to ( 22.70, 165.60)] between NOAA-19 and NPP Satellites:

Table of predicted SNOs over PacNW region for the next 30.0 days since TLE Epoch: 11/20/2013
Index Date (NOAA-19) Time (NOAA-19) NOAA-19 Lat,Lon Date (NPP) Time (NPP) NPP Lat,Lon Distance(km) Time Diff (sec)
1 11/24/2013 03:24:50 16.31, 151.98 11/24/2013 03:26:39 15.30, 147.58 484.84 109
2 11/24/2013 16:01:31 14.48, 147.74 11/24/2013 15:59:10 15.21, 144.24 385.07 141
3 12/06/2013 15:28:52 22.59, 157.42 12/06/2013 15:31:45 23.72, 152.63 506.49 173
4 12/07/2013 02:45:14 22.66, 160.87 12/07/2013 02:44:31 21.90, 157.04 404.01 43
5 12/19/2013 14:50:03 13.03, 165.58 12/19/2013 14:50:26 13.99, 161.34 471.54 23
